Zurück zum Katalog

COSMOS 1323

AktivNavigationLEO
NORAD 12978·PAYLOAD·🇷🇺 Russia

Gestartet Nov 28, 1981 von Plesetsk Cosmodrome

Loading…

Nächste Überflüge (nächste 24 Stunden)

TLE

AktuellSource: Space-Track

Epoche: Sep 14, 2026, 09:13 UTC

1 12978U 81116D   26257.38405525 -.00000024  00000-0 -79456-4 0  9991
2 12978  73.9786 260.4163 0089156  99.0189 328.8620 12.29208575 10029

Verfolge COSMOS 1323 in Echtzeit mit AllMySat

Download on the App Store